[[{"header":{"parameterUnit":"m.s-1","parameterCategory":1,"la1":30.2991,"la2":30.254,"lo1":-89.0895,"lo2":-89.0444,"dy":0.0017,"dx":0.0017,"nx":28,"ny":28,"refTime":"2025-03-27T03:00:00:Z","depth":0,"parameterNumber":2,"parameterNumberName":"U-component_of_WINDS"},"data":[0,0,0,0,0,0,0,0,0,0,0,0,0,0,0,0,0,0,0,0,0,0,0,0,0,0,0,0,0,0,0,0,0,0,0,0,0,0,0,0,0,0,0,0,0,0,0,0,0,0,0,0,0,0,0,0,0,0,-4.4474,-4.4474,0,-4.4533,-4.4533,-4.4534,-4.4528,-4.4527,-4.4526,-4.4525,-4.4583,-4.4586,-4.4588,0,0,0,0,0,0,0,0,0,0,0,0,0,-4.4356,-4.4358,-4.4473,-4.4474,-4.4475,-4.4533,-4.4533,-4.4534,-4.4528,-4.4527,-4.4526,-4.4525,-4.4583,-4.4585,-4.4588,0,0,0,0,0,0,0,0,0,0,0,0,0,-4.441,-4.4359,-4.4473,-4.4479,-4.448,-4.4532,-4.4533,-4.4534,-4.4528,-4.4527,-4.4525,-4.4524,-4.4582,-4.4585,-4.4589,-4.4639,0,0,-4.46,-4.4601,0,0,0,0,0,0,0,0,-4.4407,-4.4415,-4.4477,-4.4479,-4.448,-4.4522,-4.4513,-4.4569,-4.4529,-4.451,-4.4525,-4.4524,-4.4564,-4.4569,-4.4583,-4.4641,-4.4644,-4.46,-4.4602,-4.4604,-4.4605,0,0,0,0,0,0,0,-4.4404,-4.4412,-4.4497,-4.4478,-4.448,-4.4479,-4.4485,-4.4524,-4.4544,-4.4511,-4.4511,-4.4518,-4.4564,-4.4579,-4.4584,-4.4645,-4.46,-4.4603,-4.4605,-4.4607,-4.4751,-4.4752,0,0,0,0,0,0,-4.4399,-4.4409,-4.4495,-4.4499,-4.444,-4.4482,-4.4489,-4.451,-4.4543,-4.4547,-4.4519,-4.4518,-4.4574,-4.458,-4.4586,-4.4648,-4.4604,-4.4607,-4.4609,-4.4749,-4.4751,-4.4753,0,0,0,0,0,0,-4.4396,-4.4406,-4.4493,-4.4454,-4.4465,-4.4486,-4.4509,-4.4511,-4.4526,-4.4549,-4.4553,-4.4531,-4.4573,-4.4581,-4.4627,-4.465,-4.4609,-4.4612,-4.4747,-4.475,-4.4752,-4.4771,0,0,0,0,0,0,-4.4393,-4.4405,-4.4424,-4.4454,-4.4467,-4.4531,-4.451,-4.4514,-4.4533,-4.4531,-4.4561,-4.4565,-4.4573,-4.4621,-4.463,-4.4654,-4.4615,-4.4745,-4.4748,-4.4751,-4.4768,-4.4774,-4.4779,0,0,0,0,0,-4.4389,-4.4426,-4.4425,-4.4435,-4.449,-4.4533,-4.454,-4.4548,-4.4535,-4.4554,-4.457,-4.4564,-4.4647,-4.4626,-4.4636,-4.4661,-4.4743,-4.4747,-4.4751,-4.4766,-4.4773,-4.4778,0,0,0,0,0,0,-4.4395,-4.4429,-4.4429,-4.4477,-4.4502,-4.4532,-4.4555,-4.4555,-4.4583,-4.4581,-4.459,-4.4597,-4.4643,-4.4657,-4.4633,-4.4713,-4.4693,-4.4699,-4.4701,-4.4708,-4.4713,-4.4707,-4.4618,0,0,0,0,0,-4.4403,-4.4434,-4.4463,-4.4502,-4.4516,-4.4534,-4.4552,-4.4558,-4.4584,-4.4594,-4.4612,-4.4638,-4.467,-4.469,-4.472,-4.4772,-4.4779,-4.4795,-4.48,-4.4804,-4.4808,-4.4838,-4.4846,-4.4765,-4.4765,-4.4765,0,0,-4.4417,-4.444,-4.4459,-4.4505,-4.4524,-4.4558,-4.4542,-4.4577,-4.4602,-4.4599,-4.4643,-4.4658,-4.4687,-4.4737,-4.4759,-4.475,-4.4833,-4.4809,-4.4812,-4.4813,-4.4843,-4.485,-4.4857,-4.4768,-4.4767,-4.4767,0,0,-4.446,-4.4481,-4.4517,-4.4539,-4.4571,-4.4584,-4.4593,-4.4624,-4.4634,-4.4679,-4.4679,-4.4709,-4.4763,-4.4785,-4.4802,-4.4861,-4.4857,-4.4871,-4.4896,-4.4925,-4.4931,-4.4937,-4.4958,-4.4965,-4.4875,-4.4875,-4.4875,0,-4.4474,-4.4523,-4.4536,-4.4572,-4.4593,-4.4595,-4.4632,-4.4652,-4.4692,-4.4706,-4.4696,-4.4767,-4.4787,-4.4842,-4.4857,-4.4871,-4.4882,-4.4865,-4.493,-4.4935,-4.4941,-4.4961,-4.4968,-4.4877,-4.4876,-4.4876,-4.4876,0,-4.4539,-4.4574,-4.46,-4.464,-4.4665,-4.4701,-4.4719,-4.4743,-4.4748,-4.4762,-4.481,-4.4834,-4.4871,-4.4885,-4.4889,-4.4942,-4.4935,-4.4928,-4.4907,-4.495,-4.4968,-4.4976,-4.4879,-4.4878,-4.4878,-4.4877,0,0,-4.4582,-4.4634,-4.4643,-4.4662,-4.47,-4.4727,-4.4766,-4.4804,-4.4823,-4.4853,-4.4885,-4.4934,-4.4928,-4.4949,-4.4956,-4.4982,-4.5027,-4.4971,-4.4972,-4.498,-4.5088,-4.5092,-4.5101,-4.5027,-4.5029,-4.503,-4.5085,0,-4.4629,-4.4696,-4.4711,-4.4769,-4.4803,-4.4808,-4.4842,-4.4869,-4.4885,-4.4916,-4.4934,-4.4968,-4.4958,-4.4971,-4.4998,-4.5016,-4.5049,-4.5013,-4.5056,-4.5058,-4.5046,-4.511,-4.5114,-4.5165,-4.5093,-4.5094,-4.5095,0,-4.469,-4.4723,-4.4785,-4.4822,-4.4837,-4.4866,-4.4904,-4.4934,-4.4966,-4.4977,-4.5003,-4.5008,-4.5049,-4.5031,-4.5088,-4.5063,-4.5083,-4.5095,-4.5098,-4.51,-4.5077,-4.5113,-4.5181,-4.5188,-4.5107,-4.5106,-4.5105,0,-4.4715,-4.4775,-4.4821,-4.4838,-4.4882,-4.4903,-4.4922,-4.4954,-4.4977,-4.501,-4.5026,-4.5063,-4.5083,-4.5112,-4.5129,-4.5113,-4.5185,-4.5167,-4.5194,-4.5194,-4.5206,-4.5204,-4.5277,-4.5223,-4.5222,-4.5222,-4.5222,0,-4.4763,-4.4801,-4.4833,-4.486,-4.4904,-4.4922,-4.4965,-4.4984,-4.5013,-4.5045,-4.5053,-4.5083,-4.5104,-4.5138,-4.5151,-4.5197,-4.5207,-4.5216,-4.5218,-4.5214,-4.5212,-4.5224,-4.522,-4.5224,-4.5224,-4.5223,-4.5223,0,-4.4796,-4.4819,-4.4869,-4.4909,-4.492,-4.495,-4.4985,-4.5012,-4.5031,-4.5072,-4.5083,-4.5111,-4.5152,-4.5172,-4.5222,-4.5231,-4.5283,-4.5284,-4.5272,-4.5272,-4.5298,-4.5295,-4.5379,-4.5391,-4.533,-4.5331,-4.5331,0,-4.4824,-4.4854,-4.4898,-4.4921,-4.4942,-4.4978,-4.5003,-4.5024,-4.5049,-4.5091,-4.5114,-4.5156,-4.5189,-4.5254,-4.5279,-4.5318,-4.5319,-4.5347,-4.5325,-4.532,-4.5319,-4.5316,-4.5319,-4.5349,-4.535,-4.535,-4.535,0,-4.4871,-4.4883,-4.4918,-4.4959,-4.4989,-4.5021,-4.5053,-4.5072,-4.5098,-4.5126,-4.5169,-4.5195,-4.5249,-4.529,-4.5332,-4.5352,-4.5356,-4.5358,-4.5366,-4.536,-4.5351,-4.5356,-4.528,-4.5355,-4.5354,-4.5354,-4.5354,-4.5354,-4.4902,-4.4929,-4.4966,-4.5006,-4.5034,-4.5065,-4.5094,-4.5118,-4.5154,-4.5199,-4.521,-4.5255,-4.529,-4.5347,-4.537,-4.5406,-4.54,-4.5412,-4.5414,-4.5416,-4.5417,-4.5348,-4.5414,-4.5414,-4.5414,-4.5414,-4.5413,0,-4.4949,-4.4974,-4.5011,-4.5057,-4.509,-4.5094,-4.5131,-4.5158,-4.5197,-4.5231,-4.5266,-4.5316,-4.5357,-4.5388,-4.543,-4.5453,-4.5456,-4.5464,-4.5461,-4.5466,-4.542,-4.5409,-4.5461,-4.5461,-4.5461,-4.5461,-4.5461,-4.5461,-4.4977,-4.5024,-4.504,-4.5102,-4.5128,-4.5173,-4.5194,-4.5223,-4.525,-4.5306,-4.5341,-4.5362,-4.5395,-4.5441,-4.548,-4.5488,-4.5502,-4.551,-4.5517,-4.5474,-4.5469,-4.5464,-4.5453,-4.5513,-4.5513,-4.556,-4.556,-4.556]},{"header":{"parameterUnit":"m.s-1","parameterCategory":1,"la1":30.2991,"la2":30.254,"lo1":-89.0895,"lo2":-89.0444,"dy":0.0017,"dx":0.0017,"nx":28,"ny":28,"refTime":"2025-03-27T03:00:00:Z","depth":0,"parameterNumber":3,"parameterNumberName":"V-component_of_WINDS"},"data":[0,0,0,0,0,0,0,0,0,0,0,0,0,0,0,0,0,0,0,0,0,0,0,0,0,0,0,0,0,0,0,0,0,0,0,0,0,0,0,0,0,0,0,0,0,0,0,0,0,0,0,0,0,0,0,0,0,0,2.312,2.312,0,2.3183,2.3184,2.3185,2.328,2.3282,2.3284,2.3285,2.3343,2.3343,2.3343,0,0,0,0,0,0,0,0,0,0,0,0,0,2.3075,2.3075,2.312,2.312,2.3121,2.3183,2.3184,2.3185,2.328,2.3282,2.3284,2.3286,2.3343,2.3343,2.3343,0,0,0,0,0,0,0,0,0,0,0,0,0,2.3112,2.3075,2.3119,2.3176,2.3182,2.3183,2.3184,2.3185,2.328,2.3282,2.3285,2.3287,2.3343,2.3343,2.3343,2.3291,0,0,2.3342,2.3342,0,0,0,0,0,0,0,0,2.311,2.3113,2.3167,2.3172,2.3179,2.3227,2.319,2.322,2.3279,2.3242,2.3285,2.3288,2.3302,2.3305,2.3311,2.3294,2.3296,2.3342,2.3342,2.3342,2.3342,0,0,0,0,0,0,0,2.3107,2.3111,2.3145,2.3168,2.3175,2.3197,2.3205,2.3196,2.3256,2.3246,2.3253,2.3259,2.3305,2.3311,2.3313,2.3297,2.3342,2.3342,2.3342,2.3342,2.3243,2.3241,0,0,0,0,0,0,2.3097,2.3108,2.3143,2.3147,2.315,2.3196,2.3205,2.3209,2.3257,2.3267,2.3257,2.3264,2.331,2.3313,2.3315,2.326,2.3342,2.3342,2.3342,2.3246,2.3242,2.324,0,0,0,0,0,0,2.3095,2.3099,2.314,2.313,2.3137,2.3194,2.3197,2.3208,2.3215,2.3266,2.3276,2.3252,2.3312,2.3316,2.3298,2.3263,2.3342,2.3342,2.3249,2.3245,2.3241,2.3147,0,0,0,0,0,0,2.3094,2.3098,2.308,2.3128,2.3137,2.3122,2.3195,2.3208,2.3215,2.3224,2.3264,2.3273,2.3314,2.3297,2.3297,2.3265,2.3342,2.3252,2.3247,2.3242,2.3154,2.3141,2.313,0,0,0,0,0,2.3092,2.3048,2.3078,2.3082,2.3116,2.312,2.3124,2.3175,2.3212,2.3194,2.3227,2.3272,2.3267,2.3295,2.3296,2.3262,2.3254,2.3248,2.3243,2.3159,2.3143,2.313,0,0,0,0,0,0,2.2991,2.3056,2.309,2.3061,2.3085,2.3136,2.3114,2.3156,2.3168,2.3175,2.3236,2.3244,2.3218,2.3238,2.3268,2.3216,2.3268,2.3262,2.3204,2.3189,2.3177,2.3173,2.3342,0,0,0,0,0,2.2966,2.2966,2.3022,2.2991,2.3002,2.3056,2.306,2.3097,2.3123,2.3132,2.3165,2.3186,2.319,2.3191,2.3197,2.3157,2.3168,2.3135,2.3123,2.3113,2.3107,2.3089,2.3076,2.3221,2.3221,2.3221,0,0,2.2912,2.2948,2.2944,2.2972,2.2995,2.2992,2.3063,2.3057,2.3056,2.3131,2.3117,2.3141,2.3169,2.3141,2.313,2.3157,2.307,2.3106,2.3097,2.3097,2.3082,2.3068,2.3056,2.3217,2.3217,2.3218,0,0,2.2815,2.2842,2.2821,2.2843,2.2878,2.2915,2.291,2.2956,2.2976,2.2964,2.3021,2.3019,2.3024,2.3043,2.3052,2.2966,2.3007,2.2966,2.2902,2.2885,2.2873,2.2863,2.2833,2.2822,2.296,2.2959,2.2959,0,2.2744,2.2745,2.2804,2.2796,2.2806,2.2878,2.2857,2.2875,2.2908,2.2913,2.2944,2.2954,2.2977,2.2956,2.2935,2.294,2.2936,2.2961,2.2871,2.2861,2.2853,2.2825,2.2813,2.2954,2.2955,2.2955,2.2956,0,2.2657,2.2656,2.2635,2.267,2.2678,2.2663,2.2718,2.272,2.2757,2.279,2.2777,2.2809,2.2824,2.2822,2.2856,2.2805,2.2821,2.286,2.2913,2.2833,2.2808,2.2797,2.2947,2.2949,2.295,2.2951,0,0,2.2495,2.2566,2.2557,2.2575,2.262,2.262,2.2608,2.2627,2.2627,2.2648,2.264,2.2644,2.2682,2.2693,2.2731,2.2715,2.2646,2.2757,2.2758,2.2735,2.2593,2.2563,2.255,2.2675,2.2673,2.2671,2.2591,0,2.2407,2.2393,2.2447,2.2419,2.242,2.249,2.248,2.2506,2.2537,2.2542,2.2575,2.2578,2.2627,2.2635,2.2623,2.2657,2.2618,2.2664,2.2666,2.2666,2.2657,2.2536,2.2505,2.2427,2.2581,2.2579,2.2578,0,2.2301,2.2322,2.2294,2.2345,2.2347,2.2337,2.2359,2.2363,2.2394,2.2418,2.2432,2.2478,2.2469,2.2521,2.2509,2.2539,2.2543,2.256,2.2559,2.256,2.2617,2.2535,2.2403,2.2391,2.2563,2.2564,2.2565,0,2.2187,2.2207,2.2195,2.2207,2.2265,2.2257,2.228,2.2314,2.2322,2.2341,2.2347,2.2363,2.2371,2.2382,2.243,2.2463,2.2414,2.2469,2.2433,2.2431,2.2418,2.2418,2.2285,2.2421,2.2421,2.2421,2.2421,0,2.2083,2.2064,2.2145,2.2136,2.2117,2.218,2.2158,2.2188,2.2218,2.2217,2.2277,2.2273,2.2338,2.2341,2.2378,2.2364,2.2367,2.2385,2.2395,2.238,2.2378,2.2383,2.239,2.2418,2.2419,2.2419,2.242,0,2.1951,2.2005,2.1996,2.2053,2.2067,2.205,2.2098,2.2093,2.2129,2.2126,2.2129,2.2186,2.2193,2.2243,2.226,2.2286,2.2258,2.2278,2.2248,2.2255,2.2216,2.2219,2.2081,2.2067,2.2211,2.221,2.2209,0,2.1881,2.1869,2.1926,2.1931,2.1953,2.1959,2.1969,2.203,2.2037,2.2074,2.2064,2.2077,2.2091,2.2099,2.2141,2.2155,2.2176,2.2128,2.2179,2.2164,2.2176,2.2177,2.2176,2.2116,2.2114,2.2113,2.2111,0,2.1752,2.178,2.1794,2.1817,2.1828,2.1849,2.1872,2.1872,2.194,2.1945,2.1956,2.1967,2.1987,2.1999,2.2022,2.2044,2.2088,2.2095,2.2088,2.2072,2.2055,2.2065,2.2218,2.2098,2.2099,2.21,2.2101,2.2101,2.165,2.1643,2.1683,2.1697,2.1722,2.1744,2.1743,2.1781,2.1792,2.1815,2.185,2.1856,2.1889,2.1924,2.1943,2.1948,2.1973,2.1962,2.1959,2.1956,2.1948,2.2055,2.1952,2.1952,2.1952,2.1953,2.1953,0,2.1524,2.1554,2.1566,2.16,2.1611,2.1656,2.1686,2.1691,2.1696,2.1725,2.1739,2.1752,2.1765,2.1808,2.1826,2.1821,2.1842,2.1823,2.1824,2.1829,2.1923,2.1929,2.1806,2.1806,2.1806,2.1806,2.1806,2.1806,2.146,2.1452,2.1485,2.149,2.152,2.1529,2.1542,2.1562,2.1586,2.1599,2.1611,2.1641,2.1676,2.1697,2.1711,2.1723,2.1727,2.1701,2.172,2.1808,2.1822,2.1835,2.184,2.1701,2.1701,2.1625,2.1625,2.1624]}]]